Home > Weather > Daegu > Past weeks

Flag for South Korea Past Weather in Daegu, South Korea — Yesterday and Last 2 Weeks

Now
75 °F

Clear.


Feels Like: 78 °F
Forecast: 67 / 70 °F
Wind: 10 mph from Southeast

Location: Taegu Ab

Current Time: Aug 27, 2016 at 9:06:52 PM

Latest Report: Aug 27, 2016 at 8:00 PM


Visibility: 10 mi

Pressure: 29.74 "Hg

Humidity: 50%

Dew Point: 55 °F

Location of DaeguLocation

Past Weather in Daegu — Graph

°F

Daegu Temperature Yesterday

Maximum temperature yesterday: 84 °F (at 12:00 AM)
Minimum temperature yesterday: 68 °F (at 3:00 PM)
Average temperature yesterday: 74 °F

High & Low Weather Summary for the Past Weeks

 TemperatureHumidityPressure
High99 °F (Aug 13, 2:00 PM)94% (Aug 24, 6:00 AM)29.86 "Hg (Aug 24, 6:00 AM)
Low66 °F (Aug 27, 12:00 AM)26% (Aug 24, 4:00 PM)29.47 "Hg (Aug 15, 3:00 PM)
Average83 °F64%29.67 "Hg
* Reported Aug 12 8:00 PM — Aug 27 8:00 PM, Daegu, Weather by CustomWeather, © 2016

Note: Actual official high and low records may vary slightly from our data, if they occured in-between our weather recording intervals... More about our weather records

Advertising

Daegu Weather History for the Previous 24 Hours

Scroll right to see more
 ConditionsComfort  
Time TempWeatherWind HumidityBarometerVisibility
8:00 PM
Sat, Aug 27
75 °FClear.10 mph50%29.74 "Hg10 mi
7:00 PM75 °FClear.15 mph50%29.74 "Hg10 mi
6:00 PM77 °FPartly sunny.15 mph47%29.74 "HgN/A
5:00 PM79 °FPartly sunny.14 mph42%29.74 "HgN/A
4:00 PM82 °FScattered clouds.16 mph40%29.71 "HgN/A
3:00 PM82 °FPartly sunny.17 mph40%29.74 "HgN/A
2:00 PM82 °FScattered clouds.17 mph37%29.74 "HgN/A
1:00 PM82 °FPassing clouds.17 mph37%29.77 "HgN/A
12:00 PM82 °FScattered clouds.13 mph37%29.77 "HgN/A
11:00 AM81 °FScattered clouds.13 mph42%29.80 "HgN/A
10:00 AM79 °FBroken clouds.13 mph42%29.83 "HgN/A
9:00 AM73 °FSunny.5 mph57%29.83 "Hg10 mi
8:00 AM70 °FSunny.1 mph73%29.86 "Hg10 mi
7:00 AM68 °FSunny.1 mph78%29.86 "Hg10 mi
6:00 AM66 °FSunny.2 mph83%29.86 "Hg10 mi
5:00 AM66 °FClear.1 mph88%29.83 "Hg10 mi
4:00 AM68 °FClear.3 mph78%29.83 "Hg10 mi
3:00 AM66 °FClear.2 mph83%29.86 "Hg10 mi
2:00 AM66 °FClear.1 mph88%29.83 "Hg10 mi
1:00 AM66 °FClear.1 mph88%29.86 "Hg10 mi
12:00 AM66 °FClear.2 mph88%29.86 "Hg10 mi
11:00 PM
Fri, Aug 26
68 °FPassing clouds.2 mph83%29.86 "HgN/A
10:00 PM68 °FOvercast.3 mph83%29.86 "HgN/A
9:00 PM68 °FOvercast.2 mph83%29.86 "HgN/A
Weather by CustomWeather, © 2016

See weather overviewHow to use our weather pages